[[{"header":{"parameterUnit":"m.s-1","parameterCategory":1,"la1":30.2991,"la2":30.254,"lo1":-89.0895,"lo2":-89.0444,"dy":0.0017,"dx":0.0017,"nx":28,"ny":28,"refTime":"2024-06-29T09:00:00:Z","depth":0,"parameterNumber":2,"parameterNumberName":"U-component_of_WINDS"},"data":[0,0,0,0,0,0,0,0,0,0,0,0,0,0,0,0,0,0,0,0,0,0,0,0,0,0,0,0,0,0,0,0,0,0,0,0,0,0,0,0,0,0,0,0,0,0,0,0,0,0,0,0,0,0,0,0,0,0,3.3238,3.3239,0,3.3329,3.333,3.3331,3.3318,3.3317,3.3315,3.3314,3.341,3.3414,3.3418,0,0,0,0,0,0,0,0,0,0,0,0,0,3.3057,3.306,3.3238,3.3239,3.324,3.3329,3.333,3.3332,3.3319,3.3317,3.3315,3.3313,3.3409,3.3413,3.3418,0,0,0,0,0,0,0,0,0,0,0,0,0,3.3141,3.3061,3.3238,3.3244,3.3246,3.3329,3.333,3.3332,3.3319,3.3317,3.3314,3.3312,3.3407,3.3413,3.3419,3.3502,0,0,3.3437,3.344,0,0,0,0,0,0,0,0,3.3136,3.3147,3.3242,3.3244,3.3246,3.331,3.3302,3.3389,3.332,3.3291,3.3314,3.3311,3.3379,3.3387,3.3409,3.3506,3.351,3.3438,3.3441,3.3444,3.3445,0,0,0,0,0,0,0,3.313,3.3143,3.3274,3.3244,3.3246,3.3244,3.3254,3.3318,3.3347,3.3294,3.3293,3.3304,3.3379,3.3403,3.3411,3.3512,3.3437,3.3443,3.3446,3.3449,3.3685,3.3688,0,0,0,0,0,0,3.3122,3.3139,3.3271,3.3277,3.3184,3.3249,3.326,3.3292,3.3346,3.3352,3.3306,3.3303,3.3394,3.3404,3.3415,3.3517,3.3444,3.3449,3.3453,3.3683,3.3686,3.3689,0,0,0,0,0,0,3.3118,3.3134,3.3268,3.3208,3.3224,3.3255,3.3291,3.3295,3.3319,3.3355,3.3361,3.3325,3.3393,3.3406,3.3481,3.352,3.3452,3.3457,3.368,3.3684,3.3688,3.3722,0,0,0,0,0,0,3.3113,3.3133,3.3163,3.3208,3.3228,3.3331,3.3293,3.3298,3.3329,3.3326,3.3374,3.338,3.3392,3.3472,3.3487,3.3527,3.3462,3.3676,3.3681,3.3686,3.3717,3.3726,3.3734,0,0,0,0,0,3.3107,3.3169,3.3165,3.3181,3.3266,3.3333,3.3344,3.3356,3.3332,3.3364,3.3388,3.3379,3.3514,3.348,3.3496,3.3539,3.3674,3.368,3.3686,3.3713,3.3725,3.3734,0,0,0,0,0,0,3.3127,3.3175,3.317,3.3249,3.3287,3.333,3.3371,3.3367,3.3413,3.3408,3.3422,3.3433,3.3509,3.3532,3.3493,3.3624,3.3591,3.36,3.3606,3.3617,3.3625,3.3618,3.3467,0,0,0,0,0,3.3141,3.319,3.3229,3.3295,3.3314,3.334,3.3369,3.3375,3.3415,3.3431,3.346,3.3501,3.3553,3.3586,3.3636,3.3721,3.3733,3.3759,3.3768,3.3775,3.3783,3.3832,3.3845,3.3709,3.3709,3.3709,0,0,3.3169,3.3202,3.3232,3.33,3.333,3.3382,3.3353,3.3409,3.3448,3.344,3.3512,3.3536,3.3582,3.3663,3.37,3.3684,3.3823,3.3782,3.3788,3.3792,3.3839,3.3852,3.3864,3.3713,3.3712,3.3712,0,0,3.3248,3.3277,3.3336,3.3367,3.3414,3.3431,3.3445,3.349,3.3505,3.3578,3.3574,3.3622,3.371,3.3744,3.3773,3.3869,3.3863,3.3885,3.3929,3.3977,3.3988,3.3997,3.4033,3.4045,3.3893,3.3893,3.3893,0,3.3278,3.3355,3.3367,3.3424,3.3455,3.3451,3.3512,3.3542,3.3603,3.3625,3.3607,3.372,3.375,3.384,3.3864,3.3887,3.3905,3.3878,3.3985,3.3995,3.4004,3.4038,3.4051,3.3895,3.3895,3.3895,3.3895,0,3.339,3.3444,3.3487,3.3545,3.3582,3.3641,3.3663,3.3699,3.3703,3.3723,3.3799,3.3836,3.3894,3.3916,3.392,3.4008,3.3996,3.3982,3.3948,3.4019,3.4051,3.4064,3.3899,3.3898,3.3897,3.3897,0,0,3.3481,3.3549,3.3564,3.3592,3.3644,3.3687,3.3748,3.3804,3.3835,3.3878,3.393,3.4007,3.3994,3.4027,3.4036,3.4078,3.4153,3.4058,3.4059,3.4075,3.4254,3.4264,3.4279,3.415,3.4153,3.4155,3.425,0,3.3566,3.3671,3.3685,3.3779,3.383,3.3829,3.3882,3.3921,3.3942,3.399,3.4014,3.4068,3.4047,3.4067,3.4109,3.4135,3.419,3.4129,3.42,3.4202,3.4187,3.4296,3.4306,3.4394,3.4263,3.4265,3.4267,0,3.3677,3.3724,3.3823,3.3871,3.3893,3.394,3.3995,3.4041,3.4086,3.4099,3.4137,3.4141,3.4206,3.4171,3.4261,3.4219,3.425,3.4268,3.4272,3.4278,3.4238,3.4305,3.4422,3.4436,3.4286,3.4285,3.4283,0,3.3735,3.3823,3.3894,3.3918,3.3976,3.4009,3.4035,3.4078,3.4113,3.4161,3.4184,3.424,3.427,3.4314,3.4334,3.4306,3.4424,3.439,3.4437,3.4437,3.446,3.4458,3.4584,3.4481,3.4481,3.448,3.448,0,3.3827,3.3888,3.3921,3.3964,3.4033,3.4051,3.4119,3.4144,3.4184,3.4234,3.4237,3.4284,3.4307,3.4359,3.4375,3.4448,3.4462,3.4475,3.4478,3.4474,3.4473,3.4494,3.4488,3.4484,3.4483,3.4483,3.4482,0,3.3902,3.3926,3.4004,3.4054,3.4068,3.4117,3.416,3.4203,3.4225,3.4289,3.4305,3.4339,3.44,3.4425,3.4499,3.4511,3.4595,3.4594,3.4579,3.458,3.4626,3.4621,3.4769,3.4789,3.4673,3.4674,3.4675,0,3.3958,3.4005,3.4061,3.4095,3.4122,3.4176,3.4211,3.4232,3.4269,3.4326,3.4363,3.4424,3.4474,3.4572,3.4604,3.4662,3.4662,3.471,3.4671,3.4666,3.4663,3.466,3.4665,3.4717,3.4718,3.4719,3.472,0,3.4057,3.4068,3.4118,3.4174,3.4217,3.4262,3.4306,3.4334,3.4361,3.4403,3.4465,3.4504,3.4581,3.4642,3.4702,3.4731,3.4731,3.4732,3.4746,3.4742,3.4732,3.4738,3.4599,3.4728,3.4728,3.4727,3.4726,3.4726,3.4125,3.4167,3.4214,3.4271,3.4307,3.4349,3.4392,3.4421,3.4473,3.4537,3.4547,3.4614,3.4662,3.4742,3.4774,3.4828,3.4815,3.4835,3.484,3.4845,3.4848,3.4724,3.4839,3.4838,3.4838,3.4838,3.4838,0,3.4224,3.4254,3.4307,3.4369,3.4415,3.4412,3.4461,3.45,3.4559,3.4603,3.4652,3.4726,3.4786,3.4824,3.4885,3.4921,3.4923,3.4936,3.4933,3.494,3.4855,3.4837,3.4934,3.4934,3.4934,3.4934,3.4934,3.4934,3.428,3.4353,3.437,3.4461,3.4492,3.4557,3.4586,3.4626,3.4661,3.4743,3.4793,3.4817,3.486,3.4925,3.4981,3.4991,3.5013,3.5028,3.5037,3.4956,3.4946,3.4937,3.4919,3.5032,3.5032,3.5117,3.5118,3.5119]},{"header":{"parameterUnit":"m.s-1","parameterCategory":1,"la1":30.2991,"la2":30.254,"lo1":-89.0895,"lo2":-89.0444,"dy":0.0017,"dx":0.0017,"nx":28,"ny":28,"refTime":"2024-06-29T09:00:00:Z","depth":0,"parameterNumber":3,"parameterNumberName":"V-component_of_WINDS"},"data":[0,0,0,0,0,0,0,0,0,0,0,0,0,0,0,0,0,0,0,0,0,0,0,0,0,0,0,0,0,0,0,0,0,0,0,0,0,0,0,0,0,0,0,0,0,0,0,0,0,0,0,0,0,0,0,0,0,0,3.0617,3.0619,0,3.0807,3.0809,3.0811,3.0823,3.082,3.0818,3.0816,3.1009,3.1016,3.1023,0,0,0,0,0,0,0,0,0,0,0,0,0,3.0256,3.0263,3.0617,3.0619,3.0621,3.0807,3.0809,3.0812,3.0823,3.082,3.0818,3.0815,3.1006,3.1015,3.1023,0,0,0,0,0,0,0,0,0,0,0,0,0,3.0426,3.0265,3.0616,3.0649,3.0654,3.0806,3.0809,3.0813,3.0824,3.082,3.0817,3.0814,3.1004,3.1014,3.1025,3.1156,0,0,3.1057,3.1062,0,0,0,0,0,0,0,0,3.0417,3.0439,3.0642,3.0647,3.0653,3.0788,3.0753,3.0927,3.0824,3.0759,3.0816,3.0812,3.0938,3.0954,3.0996,3.1165,3.1173,3.1058,3.1065,3.1069,3.1072,0,0,0,0,0,0,0,3.0405,3.0431,3.0692,3.0645,3.0652,3.0652,3.0673,3.0786,3.0864,3.0765,3.0766,3.0788,3.094,3.0986,3.1001,3.1176,3.1058,3.1067,3.1074,3.1078,3.1453,3.1456,0,0,0,0,0,0,3.0387,3.0421,3.0686,3.0698,3.0525,3.0662,3.0685,3.0748,3.0863,3.0878,3.0791,3.0788,3.0969,3.0988,3.1008,3.1164,3.1069,3.1079,3.1085,3.145,3.1454,3.1458,0,0,0,0,0,0,3.038,3.0411,3.0678,3.056,3.0594,3.0671,3.0742,3.0753,3.0799,3.0883,3.0897,3.0824,3.0968,3.0993,3.1117,3.1171,3.1084,3.1094,3.1445,3.1451,3.1456,3.148,0,0,0,0,0,0,3.0369,3.0408,3.0461,3.0561,3.06,3.0787,3.0746,3.0759,3.0818,3.0816,3.0918,3.0931,3.0967,3.1101,3.1128,3.1184,3.1102,3.1441,3.1448,3.1454,3.1475,3.1486,3.1495,0,0,0,0,0,3.0356,3.0461,3.0463,3.0495,3.0668,3.079,3.0812,3.0852,3.0823,3.0874,3.0927,3.0928,3.1161,3.1114,3.1144,3.1204,3.1438,3.1446,3.1454,3.1471,3.1484,3.1495,0,0,0,0,0,0,3.0366,3.0475,3.0479,3.062,3.0695,3.0792,3.0859,3.0866,3.0951,3.0946,3.099,3.1013,3.1135,3.1182,3.1128,3.1333,3.1296,3.131,3.1298,3.1311,3.1321,3.1306,3.1111,0,0,0,0,0,3.0384,3.0476,3.0566,3.0681,3.0719,3.0782,3.0837,3.086,3.094,3.0972,3.1034,3.111,3.12,3.1259,3.1346,3.1482,3.1501,3.1537,3.1547,3.1555,3.1567,3.1635,3.1651,3.1484,3.1484,3.1483,0,0,3.0424,3.0494,3.055,3.0685,3.0746,3.0837,3.0809,3.0908,3.0975,3.0987,3.1107,3.1155,3.1242,3.1371,3.1431,3.1415,3.1617,3.1565,3.1571,3.1578,3.1645,3.1661,3.1675,3.1489,3.1488,3.1487,0,0,3.0541,3.0606,3.0706,3.0767,3.086,3.09,3.0924,3.1018,3.105,3.1171,3.118,3.1259,3.1415,3.1475,3.1526,3.1658,3.166,3.1685,3.1737,3.1804,3.1817,3.1829,3.1872,3.1887,3.1697,3.1697,3.1697,0,3.0578,3.0717,3.0757,3.0854,3.0911,3.0924,3.1024,3.1081,3.1197,3.1235,3.1214,3.1405,3.1465,3.1605,3.1637,3.1679,3.1704,3.1674,3.1812,3.1825,3.1836,3.1878,3.1894,3.1699,3.1699,3.1699,3.1698,0,3.0755,3.0851,3.092,3.1031,3.1095,3.1194,3.1245,3.1305,3.1321,3.1362,3.1482,3.1554,3.1653,3.1689,3.1707,3.183,3.1816,3.1803,3.1766,3.1854,3.1893,3.191,3.1702,3.1701,3.1701,3.17,0,0,3.0887,3.1014,3.1039,3.1086,3.1187,3.126,3.1356,3.1453,3.1501,3.158,3.1658,3.1786,3.1773,3.1831,3.1855,3.1914,3.2007,3.1893,3.1896,3.1909,3.2141,3.2148,3.2166,3.2009,3.2013,3.2015,3.2133,0,3.1013,3.1186,3.1221,3.1369,3.1455,3.1466,3.1549,3.1617,3.1657,3.1733,3.1776,3.1864,3.1844,3.1877,3.1936,3.1984,3.2054,3.1976,3.208,3.2083,3.2056,3.2188,3.2197,3.2305,3.2149,3.2152,3.2154,0,3.1184,3.1264,3.142,3.1503,3.1541,3.1615,3.1703,3.1777,3.1853,3.1877,3.1938,3.1954,3.205,3.2007,3.2137,3.2083,3.2127,3.2156,3.2161,3.2171,3.2123,3.2198,3.2341,3.2355,3.2179,3.2177,3.2175,0,3.1259,3.1406,3.1517,3.1558,3.1659,3.171,3.1754,3.1827,3.188,3.1957,3.1991,3.2078,3.2125,3.219,3.2226,3.2193,3.2352,3.2314,3.2371,3.237,3.2404,3.2401,3.2552,3.2436,3.2436,3.2435,3.2435,0,3.1395,3.1489,3.1552,3.162,3.1724,3.1762,3.1863,3.1906,3.1969,3.2043,3.2058,3.2127,3.2172,3.2246,3.2275,3.2375,3.2397,3.2417,3.2423,3.2414,3.2411,3.2443,3.2435,3.244,3.2439,3.2438,3.2437,0,3.1497,3.1544,3.1664,3.1748,3.1771,3.1844,3.1914,3.1979,3.2016,3.2109,3.2133,3.2192,3.2279,3.2322,3.2431,3.245,3.2562,3.2565,3.2536,3.2538,3.2592,3.2585,3.2767,3.2791,3.2661,3.2662,3.2663,0,3.158,3.1652,3.1742,3.1793,3.1838,3.192,3.1974,3.2012,3.2067,3.2155,3.2207,3.2295,3.2367,3.2504,3.2555,3.2636,3.264,3.2698,3.2652,3.2639,3.2636,3.263,3.2635,3.2705,3.2707,3.2708,3.2709,0,3.172,3.1737,3.1816,3.19,3.1964,3.2032,3.21,3.2139,3.2188,3.2248,3.2337,3.2392,3.2501,3.2586,3.267,3.2712,3.2717,3.2722,3.2739,3.273,3.2709,3.2717,3.2555,3.2718,3.2717,3.2716,3.2716,3.2715,3.1813,3.1875,3.1947,3.2032,3.2085,3.2146,3.2209,3.2253,3.2328,3.242,3.2437,3.253,3.2597,3.271,3.2755,3.2825,3.2812,3.2838,3.2844,3.2849,3.285,3.2699,3.2841,3.2841,3.2841,3.2841,3.284,0,3.195,3.1996,3.2073,3.2165,3.223,3.2229,3.2302,3.2356,3.2437,3.25,3.257,3.2668,3.2749,3.2804,3.2885,3.2931,3.2934,3.295,3.2946,3.2955,3.2859,3.2834,3.2945,3.2945,3.2945,3.2945,3.2945,3.2945,3.2029,3.2133,3.2159,3.2287,3.2332,3.2423,3.2464,3.2518,3.2568,3.2677,3.2745,3.278,3.2838,3.2922,3.2995,3.3008,3.3036,3.3052,3.3065,3.2974,3.2962,3.2952,3.2929,3.3058,3.3058,3.3154,3.3155,3.3156]}]]